GW6516 Weather Reports


time (UTC)temp
C
wind
direction
speed
KPH
gust
KPH
rain 1hr
cm
rain 24hr
cm
rain mn
cm
humidity
%
barometer
mb
20260508210045 14 0 0.0 0.0 0.00 0.00 0.00 72 1015.0
20260508205527 14 0 0.0 0.0 0.00 0.00 0.00 72 1015.0
20260508205031 14 0 0.0 0.0 0.00 0.00 0.00 71 1015.0
20260508204551 14 0 0.0 0.0 0.00 0.00 0.00 71 1014.9
20260508204028 15 0 0.0 0.0 0.00 0.00 0.00 71 1014.9
20260508203531 15 0 0.0 0.0 0.00 0.00 0.00 70 1014.7
20260508203052 15 0 0.0 0.0 0.00 0.00 0.00 70 1014.7
20260508202529 15 0 0.0 0.0 0.00 0.00 0.00 70 1014.8
20260508202028 15 0 0.0 0.0 0.00 0.00 0.00 68 1014.9
20260508201547 15 0 0.0 0.0 0.00 0.00 0.00 67 1014.9
20260508201028 15 0 0.0 0.0 0.00 0.00 0.00 68 1014.8
20260508200528 15 0 0.0 0.0 0.00 0.00 0.00 67 1014.9
20260508200049 15 0 0.0 0.0 0.00 0.00 0.00 67 1014.7
20260508195528 15 0 0.0 3.2 0.00 0.00 0.00 68 1014.9
20260508195032 15 0 0.0 3.2 0.00 0.00 0.00 68 1015.0
20260508194538 15 5 0.0 3.2 0.00 0.00 0.00 68 1015.1
20260508194027 15 0 0.0 0.0 0.00 0.00 0.00 69 1015.0
20260508193527 15 0 0.0 0.0 0.00 0.00 0.00 67 1015.0
20260508193037 15 0 0.0 0.0 0.00 0.00 0.00 68 1015.1
20260508192527 15 0 0.0 0.0 0.00 0.00 0.00 66 1015.2
20260508192029 15 0 0.0 0.0 0.00 0.00 0.00 67 1015.2
20260508191550 16 0 0.0 0.0 0.00 0.00 0.00 67 1015.2
20260508191028 16 0 0.0 0.0 0.00 0.00 0.00 66 1015.3
20260508190528 16 0 0.0 0.0 0.00 0.00 0.00 66 1015.3
20260508190042 16 0 0.0 0.0 0.00 0.00 0.00 66 1015.3
20260508185528 16 0 0.0 0.0 0.00 0.00 0.00 65 1015.2
20260508185028 16 0 0.0 0.0 0.00 0.00 0.00 65 1015.1
20260508184549 16 0 0.0 0.0 0.00 0.00 0.00 64 1015.2
20260508184027 16 0 0.0 0.0 0.00 0.00 0.00 63 1015.3
20260508183532 17 0 0.0 0.0 0.00 0.00 0.00 63 1015.3
20260508183039 17 0 0.0 0.0 0.00 0.00 0.00 63 1015.3
20260508182529 17 0 0.0 0.0 0.00 0.00 0.00 61 1015.3
20260508182030 17 0 0.0 0.0 0.00 0.00 0.00 62 1015.4
20260508181538 17 0 0.0 0.0 0.00 0.00 0.00 61 1015.4
20260508181029 17 0 0.0 0.0 0.00 0.00 0.00 62 1015.4
20260508180529 17 0 0.0 0.0 0.00 0.00 0.00 62 1015.5
20260508180038 17 0 0.0 0.0 0.00 0.00 0.00 61 1015.5
20260508175528 17 0 0.0 0.0 0.00 0.00 0.00 62 1015.6
20260508175029 17 0 0.0 3.2 0.00 0.00 0.00 62 1015.5
20260508174547 18 0 0.0 3.2 0.00 0.00 0.00 62 1015.6
20260508174028 18 0 0.0 0.0 0.00 0.00 0.00 61 1015.6
20260508173528 18 0 0.0 3.2 0.00 0.00 0.00 61 1015.6
20260508173046 18 0 0.0 3.2 0.00 0.00 0.00 60 1015.6
20260508172531 18 0 0.0 0.0 0.00 0.00 0.00 63 1015.6
20260508172029 18 0 0.0 0.0 0.00 0.00 0.00 63 1015.6
20260508171538 18 0 0.0 0.0 0.00 0.00 0.00 60 1015.7
20260508171028 18 0 0.0 0.0 0.00 0.00 0.00 61 1015.7
20260508170528 19 0 0.0 0.0 0.00 0.00 0.00 60 1015.7
20260508170039 18 0 0.0 0.0 0.00 0.00 0.00 60 1015.7
20260508165528 19 0 0.0 0.0 0.00 0.00 0.00 60 1015.7
20260508165028 19 0 0.0 0.0 0.00 0.00 0.00 58 1015.7
20260508164545 19 0 0.0 0.0 0.00 0.00 0.00 58 1015.8
20260508164029 20 0 0.0 0.0 0.00 0.00 0.00 59 1015.8
20260508163528 20 0 0.0 0.0 0.00 0.00 0.00 58 1015.8
20260508163038 20 0 0.0 0.0 0.00 0.00 0.00 56 1015.9
20260508162528 20 0 0.0 0.0 0.00 0.00 0.00 56 1015.9
20260508162028 20 0 0.0 0.0 0.00 0.00 0.00 56 1015.9
20260508161546 20 0 0.0 0.0 0.00 0.00 0.00 54 1015.9
20260508161029 20 0 0.0 0.0 0.00 0.00 0.00 53 1015.9
20260508160528 20 0 0.0 0.0 0.00 0.00 0.00 54 1015.9
20260508160043 21 0 0.0 0.0 0.00 0.00 0.00 54 1015.9
20260508155529 21 0 0.0 0.0 0.00 0.00 0.00 51 1015.9
20260508155029 21 0 0.0 0.0 0.00 0.00 0.00 47 1016.0
20260508154544 20 0 0.0 0.0 0.00 0.00 0.00 50 1016.0
20260508154028 20 0 0.0 0.0 0.00 0.00 0.00 52 1016.1
20260508153529 20 0 0.0 0.0 0.00 0.00 0.00 52 1016.0
20260508153038 20 0 0.0 0.0 0.00 0.00 0.00 52 1016.0
20260508152530 21 0 0.0 0.0 0.00 0.00 0.00 50 1016.1
20260508152028 21 0 0.0 0.0 0.00 0.00 0.00 48 1016.1
20260508151535 21 0 0.0 0.0 0.00 0.00 0.00 47 1016.1
20260508151031 21 0 0.0 0.0 0.00 0.00 0.00 45 1016.2
20260508150530 22 0 0.0 0.0 0.00 0.00 0.00 44 1016.2
20260508150043 22 0 0.0 0.0 0.00 0.00 0.00 44 1016.1
20260508145528 22 0 0.0 0.0 0.00 0.00 0.00 45 1016.1
20260508145028 23 0 0.0 0.0 0.00 0.00 0.00 42 1016.2
20260508144547 23 0 0.0 1.6 0.00 0.00 0.00 42 1016.1
20260508144029 23 0 0.0 3.2 0.00 0.00 0.00 42 1016.2
20260508143529 23 0 0.0 3.2 0.00 0.00 0.00 42 1016.2
20260508143049 23 194 0.0 3.2 0.00 0.00 0.00 40 1016.2
20260508142528 23 0 0.0 4.8 0.00 0.00 0.00 44 1016.2
20260508142032 23 0 0.0 4.8 0.00 0.00 0.00 44 1016.2
20260508141537 23 0 0.0 0.0 0.00 0.00 0.00 49 1016.2
20260508141028 23 0 0.0 0.0 0.00 0.00 0.00 48 1016.2
20260508140528 23 0 0.0 0.0 0.00 0.00 0.00 50 1016.2
20260508140040 23 0 0.0 3.2 0.00 0.00 0.00 54 1016.1
20260508135525 24 0 0.0 3.2 0.00 0.00 0.00 55 1016.0
20260508135029 24 0 0.0 3.2 0.00 0.00 0.00 55 1016.0
20260508134547 25 0 0.0 0.0 0.00 0.00 0.00 55 1016.0
20260508134029 25 0 0.0 0.0 0.00 0.00 0.00 53 1016.1
20260508133528 25 0 0.0 0.0 0.00 0.00 0.00 51 1016.1
20260508133037 26 0 0.0 0.0 0.00 0.00 0.00 51 1016.1
20260508132530 26 0 0.0 0.0 0.00 0.00 0.00 50 1016.2
20260508132030 26 0 0.0 0.0 0.00 0.00 0.00 48 1016.2
20260508131539 26 0 0.0 0.0 0.00 0.00 0.00 48 1016.2
20260508131029 27 0 0.0 0.0 0.00 0.00 0.00 49 1016.2
20260508130529 27 0 0.0 0.0 0.00 0.00 0.00 50 1016.2
20260508130057 27 0 0.0 0.0 0.00 0.00 0.00 50 1016.2
20260508125530 27 0 0.0 0.0 0.00 0.00 0.00 52 1016.2
20260508125029 27 0 0.0 0.0 0.00 0.00 0.00 53 1016.2
20260508124542 27 0 0.0 0.0 0.00 0.00 0.00 53 1016.2
20260508124028 27 0 0.0 3.2 0.00 0.00 0.00 52 1016.3
20260508123529 27 0 0.0 3.2 0.00 0.00 0.00 51 1016.3
20260508123053 27 0 0.0 3.2 0.00 0.00 0.00 50 1016.3
20260508122529 27 0 0.0 3.2 0.00 0.00 0.00 50 1016.2
20260508122028 27 0 0.0 3.2 0.00 0.00 0.00 51 1016.2
20260508121545 28 0 0.0 3.2 0.00 0.00 0.00 49 1016.2
20260508121029 28 0 0.0 3.2 0.00 0.00 0.00 47 1016.2
20260508120528 28 214 0.0 0.0 0.00 0.00 0.00 35 1016.1
20260508120040 28 0 0.0 0.0 0.00 0.00 0.00 33 1016.2
20260508115529 28 0 0.0 0.0 0.00 0.00 0.00 32 1016.1
20260508115028 28 0 0.0 0.0 0.00 0.00 0.00 33 1016.1
20260508114547 29 0 0.0 0.0 0.00 0.00 0.00 33 1016.0
20260508114028 29 0 0.0 0.0 0.00 0.00 0.00 26 1016.0
20260508113530 30 0 0.0 0.0 0.00 0.00 0.00 28 1015.9
20260508113044 30 0 0.0 1.6 0.00 0.00 0.00 29 1015.9
20260508112531 30 0 0.0 3.2 0.00 0.00 0.00 27 1015.8
20260508112029 31 0 0.0 3.2 0.00 0.00 0.00 25 1015.8
20260508111548 31 0 0.0 3.2 0.00 0.00 0.00 30 1015.7
20260508111028 31 0 0.0 6.4 0.00 0.00 0.00 26 1015.7
20260508110528 31 59 3.2 6.4 0.00 0.00 0.00 26 1015.7
20260508110041 31 341 1.6 3.2 0.00 0.00 0.00 26 1015.7
20260508105529 31 0 0.0 0.0 0.00 0.00 0.00 25 1015.7
20260508105032 30 0 0.0 3.2 0.00 0.00 0.00 27 1015.7
20260508104544 30 0 0.0 3.2 0.00 0.00 0.00 26 1015.8
20260508104029 31 0 0.0 4.8 0.00 0.00 0.00 26 1015.9
20260508103530 31 0 0.0 4.8 0.00 0.00 0.00 30 1015.8
20260508103045 31 352 0.0 4.8 0.00 0.00 0.00 30 1015.7
20260508102528 31 0 1.6 4.8 0.00 0.00 0.00 30 1015.7
20260508102031 31 0 0.0 8.0 0.00 0.00 0.00 30 1015.7
20260508101547 31 79 0.0 8.0 0.00 0.00 0.00 28 1015.7
20260508101029 31 0 0.0 4.8 0.00 0.00 0.00 27 1015.7
20260508100528 31 0 1.6 4.8 0.00 0.00 0.00 24 1015.7
20260508100042 31 349 0.0 3.2 0.00 0.00 0.00 28 1015.8
20260508095528 31 352 0.0 3.2 0.00 0.00 0.00 26 1015.8
20260508095031 31 0 0.0 4.8 0.00 0.00 0.00 25 1015.7
20260508094546 31 327 0.0 4.8 0.00 0.00 0.00 28 1015.8
20260508094028 31 71 0.0 3.2 0.00 0.00 0.00 25 1015.8
20260508093529 31 0 0.0 6.4 0.00 0.00 0.00 29 1015.8
20260508093046 31 193 0.0 6.4 0.00 0.00 0.00 24 1015.7
20260508092528 31 360 0.0 6.4 0.00 0.00 0.00 31 1015.7
20260508092029 31 51 0.0 6.4 0.00 0.00 0.00 31 1015.8
20260508091550 31 340 1.6 6.4 0.00 0.00 0.00 28 1015.8
20260508091029 31 339 1.6 6.4 0.00 0.00 0.00 25 1015.8
20260508090529 31 337 1.6 6.4 0.00 0.00 0.00 28 1015.8
20260508090053 31 297 0.0 6.4 0.00 0.00 0.00 25 1015.9
20260508085529 31 0 0.0 6.4 0.00 0.00 0.00 24 1015.9
20260508085030 31 0 1.6 6.4 0.00 0.00 0.00 27 1015.9
20260508084536 31 26 1.6 6.4 0.00 0.00 0.00 29 1015.9
20260508084029 31 0 1.6 4.8 0.00 0.00 0.00 26 1015.9
20260508083529 31 0 0.0 6.4 0.00 0.00 0.00 26 1016.0
20260508083044 31 0 1.6 6.4 0.00 0.00 0.00 25 1016.0
20260508082528 31 330 0.0 4.8 0.00 0.00 0.00 26 1016.0
20260508082028 31 0 0.0 4.8 0.00 0.00 0.00 24 1016.0
20260508081544 31 209 0.0 4.8 0.00 0.00 0.00 27 1016.0
20260508081031 31 0 1.6 4.8 0.00 0.00 0.00 25 1016.1
20260508080530 31 23 0.0 6.4 0.00 0.00 0.00 29 1016.0
20260508080042 30 123 1.6 6.4 0.00 0.00 0.00 29 1016.0
20260508075529 30 57 1.6 6.4 0.00 0.00 0.00 28 1016.0
20260508075028 30 5 1.6 6.4 0.00 0.00 0.00 31 1016.0
20260508074537 30 71 1.6 6.4 0.00 0.00 0.00 32 1016.0
20260508074029 30 0 0.0 3.2 0.00 0.00 0.00 31 1016.0
20260508073533 30 348 0.0 4.8 0.00 0.00 0.00 30 1016.0
20260508073044 30 49 1.6 4.8 0.00 0.00 0.00 32 1016.1
20260508072526 30 44 1.6 4.8 0.00 0.00 0.00 32 1016.1
20260508072028 29 350 1.6 3.2 0.00 0.00 0.00 28 1016.1
20260508071554 29 325 0.0 3.2 0.00 0.00 0.00 31 1016.1
20260508071029 29 0 0.0 3.2 0.00 0.00 0.00 33 1016.1
20260508070531 29 55 0.0 6.4 0.00 0.00 0.00 28 1016.1
20260508070052 30 0 0.0 6.4 0.00 0.00 0.00 28 1016.2
20260508065532 30 94 1.6 6.4 0.00 0.00 0.00 29 1016.1
20260508065028 29 0 0.0 8.0 0.00 0.00 0.00 29 1016.2
20260508064539 29 59 1.6 9.7 0.00 0.00 0.00 30 1016.2
20260508064028 30 360 1.6 9.7 0.00 0.00 0.00 30 1016.2
20260508063529 30 36 1.6 6.4 0.00 0.00 0.00 33 1016.2
20260508063041 29 326 1.6 11.3 0.00 0.00 0.00 31 1016.2
20260508062529 29 46 3.2 11.3 0.00 0.00 0.00 29 1016.2
20260508062028 29 132 1.6 8.0 0.00 0.00 0.00 29 1016.2
20260508061545 29 88 1.6 6.4 0.00 0.00 0.00 32 1016.2
20260508061028 29 70 3.2 12.9 0.00 0.00 0.00 35 1016.3
20260508060528 29 245 1.6 12.9 0.00 0.00 0.00 34 1016.3
20260508060045 28 69 4.8 12.9 0.00 0.00 0.00 31 1016.2
20260508055529 28 0 0.0 6.4 0.00 0.00 0.00 30 1016.2
20260508055028 28 352 0.0 6.4 0.00 0.00 0.00 34 1016.3
20260508054548 28 31 1.6 6.4 0.00 0.00 0.00 34 1016.2
20260508054028 28 100 1.6 8.0 0.00 0.00 0.00 33 1016.4
20260508053532 28 352 3.2 8.0 0.00 0.00 0.00 32 1016.3
20260508053044 28 30 3.2 8.0 0.00 0.00 0.00 30 1016.3
20260508052529 28 53 1.6 8.0 0.00 0.00 0.00 30 1016.2
20260508052028 28 351 1.6 4.8 0.00 0.00 0.00 30 1016.3
20260508051541 28 0 0.0 3.2 0.00 0.00 0.00 32 1016.3
20260508051029 28 0 0.0 3.2 0.00 0.00 0.00 30 1016.4
20260508050529 28 342 1.6 8.0 0.00 0.00 0.00 33 1016.4
20260508050049 28 0 1.6 8.0 0.00 0.00 0.00 36 1016.4
20260508045528 28 12 1.6 4.8 0.00 0.00 0.00 34 1016.4
20260508045028 28 0 0.0 4.8 0.00 0.00 0.00 32 1016.4
20260508044546 28 0 1.6 4.8 0.00 0.00 0.00 29 1016.4
20260508044028 28 18 1.6 8.0 0.00 0.00 0.00 32 1016.4
20260508043529 27 0 1.6 8.0 0.00 0.00 0.00 32 1016.4
20260508043044 27 46 1.6 4.8 0.00 0.00 0.00 33 1016.3
20260508042529 27 92 0.0 3.2 0.00 0.00 0.00 35 1016.4
20260508042028 27 0 0.0 3.2 0.00 0.00 0.00 34 1016.4
20260508041545 27 0 0.0 3.2 0.00 0.00 0.00 34 1016.5
20260508041029 27 0 0.0 6.4 0.00 0.00 0.00 36 1016.5
20260508040529 27 0 0.0 6.4 0.00 0.00 0.00 41 1016.5
20260508040043 27 9 0.0 3.2 0.00 0.00 0.00 39 1016.5
20260508035528 27 0 0.0 1.6 0.00 0.00 0.00 38 1016.5
20260508035028 27 0 0.0 1.6 0.00 0.00 0.00 38 1016.5
20260508034544 27 0 0.0 0.0 0.00 0.00 0.00 35 1016.6
20260508034029 27 0 0.0 1.6 0.00 0.00 0.00 39 1016.5
20260508033528 26 0 0.0 1.6 0.00 0.00 0.00 39 1016.6
20260508033101 26 0 0.0 0.0 0.00 0.00 0.00 44 1016.6
20260508032529 26 0 0.0 0.0 0.00 0.00 0.00 43 1016.5
20260508032028 26 0 0.0 0.0 0.00 0.00 0.00 44 1016.5
20260508031540 25 0 0.0 0.0 0.00 0.00 0.00 44 1016.5
20260508031029 25 0 0.0 0.0 0.00 0.00 0.00 51 1016.5
20260508030529 25 0 0.0 0.0 0.00 0.00 0.00 53 1016.5
20260508030047 25 0 0.0 0.0 0.00 0.00 0.00 50 1016.5
20260508025532 25 0 0.0 0.0 0.00 0.00 0.00 56 1016.5
20260508025028 25 0 0.0 0.0 0.00 0.00 0.00 53 1016.4
20260508024545 24 0 0.0 0.0 0.00 0.00 0.00 54 1016.5
20260508024030 24 0 0.0 0.0 0.00 0.00 0.00 54 1016.5
20260508023530 23 0 0.0 0.0 0.00 0.00 0.00 60 1016.4
20260508023043 23 0 0.0 0.0 0.00 0.00 0.00 58 1016.4
20260508022529 24 0 0.0 0.0 0.00 0.00 0.00 59 1016.4
20260508022029 23 0 0.0 0.0 0.00 0.00 0.00 57 1016.5
20260508021542 23 0 0.0 0.0 0.00 0.00 0.00 58 1016.5
20260508021029 23 0 0.0 0.0 0.00 0.00 0.00 60 1016.5
20260508020529 23 0 0.0 0.0 0.00 0.00 0.00 60 1016.4
20260508020100 22 0 0.0 0.0 0.00 0.00 0.00 62 1016.5
20260508015529 22 0 0.0 0.0 0.00 0.00 0.00 65 1016.5
20260508015031 21 0 0.0 0.0 0.00 0.00 0.00 65 1016.5
20260508014539 21 0 0.0 0.0 0.00 0.00 0.00 64 1016.5
20260508014029 20 0 0.0 0.0 0.00 0.00 0.00 62 1016.5
20260508013529 20 0 0.0 0.0 0.00 0.00 0.00 64 1016.4
20260508013038 18 0 0.0 0.0 0.00 0.00 0.00 69 1016.5
20260508012531 18 0 0.0 0.0 0.00 0.00 0.00 69 1016.5
20260508012026 17 0 0.0 0.0 0.00 0.00 0.00 70 1016.5
20260508011545 16 0 0.0 0.0 0.00 0.00 0.00 71 1016.4
20260508011028 16 0 0.0 0.0 0.00 0.00 0.00 74 1016.4
20260508010528 15 0 0.0 0.0 0.00 0.00 0.00 75 1016.4
20260508010043 14 0 0.0 0.0 0.00 0.00 0.00 75 1016.4
20260508005530 13 0 0.0 0.0 0.00 0.00 0.00 77 1016.3
20260508005032 13 0 0.0 0.0 0.00 0.00 0.00 79 1016.4
20260508004540 13 0 0.0 0.0 0.00 0.00 0.00 79 1016.3
20260508004033 12 0 0.0 0.0 0.00 0.00 0.00 79 1016.2
20260508003527 12 0 0.0 0.0 0.00 0.00 0.00 81 1016.2
20260508003044 12 0 0.0 0.0 0.00 0.00 0.00 81 1016.1
20260508002528 11 0 0.0 0.0 0.00 0.00 0.00 82 1016.1
20260508002028 11 0 0.0 0.0 0.00 0.00 0.00 82 1016.1
20260508001552 11 0 0.0 0.0 0.00 0.00 0.00 82 1016.1
20260508001027 11 0 0.0 0.0 0.00 0.00 0.00 82 1016.0
20260508000530 11 0 0.0 0.0 0.00 0.00 0.00 81 1016.0
20260508000041 11 0 0.0 0.0 0.00 0.00 0.00 81 1016.0
20260507235531 11 0 0.0 0.0 0.00 0.00 0.00 81 1016.1
20260507235027 11 0 0.0 0.0 0.00 0.00 0.00 81 1016.0
20260507234538 11 0 0.0 0.0 0.00 0.00 0.00 81 1016.0
20260507234028 11 0 0.0 0.0 0.00 0.00 0.00 81 1016.0
20260507233529 11 0 0.0 0.0 0.00 0.00 0.00 81 1016.0
20260507233040 11 0 0.0 0.0 0.00 0.00 0.00 81 1015.9
20260507232529 11 0 0.0 0.0 0.00 0.00 0.00 81 1015.8
20260507232030 11 0 0.0 0.0 0.00 0.00 0.00 81 1015.7
20260507231538 11 0 0.0 0.0 0.00 0.00 0.00 80 1015.8
20260507231029 11 0 0.0 0.0 0.00 0.00 0.00 80 1015.8
20260507230529 11 0 0.0 0.0 0.00 0.00 0.00 80 1015.7
20260507230039 11 0 0.0 0.0 0.00 0.00 0.00 80 1015.7
20260507225528 11 0 0.0 0.0 0.00 0.00 0.00 81 1015.7
20260507225028 11 0 0.0 0.0 0.00 0.00 0.00 81 1015.7
20260507224542 11 0 0.0 0.0 0.00 0.00 0.00 81 1015.7
20260507224032 11 0 0.0 0.0 0.00 0.00 0.00 81 1015.6
20260507223528 11 0 0.0 0.0 0.00 0.00 0.00 80 1015.7
20260507223044 11 0 0.0 0.0 0.00 0.00 0.00 80 1015.6
20260507222532 11 0 0.0 0.0 0.00 0.00 0.00 80 1015.6
20260507222029 11 0 0.0 0.0 0.00 0.00 0.00 79 1015.6
20260507221539 11 0 0.0 0.0 0.00 0.00 0.00 79 1015.5
20260507221028 11 0 0.0 0.0 0.00 0.00 0.00 79 1015.6
20260507220528 11 0 0.0 0.0 0.00 0.00 0.00 80 1015.6
20260507220036 11 0 0.0 0.0 0.00 0.00 0.00 79 1015.5
20260507215529 12 0 0.0 0.0 0.00 0.00 0.00 79 1015.5
20260507215028 12 0 0.0 0.0 0.00 0.00 0.00 79 1015.5
20260507214546 12 0 0.0 0.0 0.00 0.00 0.00 79 1015.5
20260507214028 12 0 0.0 0.0 0.00 0.00 0.00 78 1015.5
20260507213526 12 0 0.0 0.0 0.00 0.00 0.00 78 1015.5
20260507213050 12 0 0.0 0.0 0.00 0.00 0.00 78 1015.5
20260507212526 12 0 0.0 0.0 0.00 0.00 0.00 78 1015.5
20260507212031 12 0 0.0 0.0 0.00 0.00 0.00 78 1015.5
20260507211550 12 0 0.0 0.0 0.00 0.00 0.00 78 1015.5
20260507211028 12 0 0.0 0.0 0.00 0.00 0.00 78 1015.5
20260507210530 12 0 0.0 0.0 0.00 0.00 0.00 77 1015.5